Location: Newark
(44.2003°N, 3.2583°E)
Time: 12:33:06
(UTC+00:00)

SR - Pass Details

Date: 26 October 2019
Orbit: 574 x 882 km, 66.7° (Epoch: 17 November)

Event Time Altitude Azimuth Distance (km) Brightness Sun altitude
Rises 21:44:25 0° 250° (WSW) 3,127 - -51.0°
Reaches altitude 10° 21:47:06 10° 264° (W) 2,266 - -51.3°
Maximum altitude 21:51:21 25° 319° (NW) 1,565 - -51.9°
Drops below altitude 10° 21:55:54 10° 13° (NNE) 2,435 - -52.4°
Sets 21:58:54 0° 27° (NNE) 3,415 - -52.7°
